Tracking 19562 objects as of 22-Mar-2019
HD Live streaming from Space Station
objects crossing your sky now

AYAME 2 DEB

Track AYAME 2 DEB now!


NORAD ID: 28999
Int'l Code: 1980-018D
Perigee: 9,927.3 km
Apogee: 35,322.3 km
Inclination: 7.1 °
Period: 819.0 minutes
Semi major axis: 28995 km
RCS: 0.631 m2 (medium)
Launch date: February 22, 1980
Source: Japan (JPN)
Launch site: TANEGASHIMA SPACE CENTER (TNSTA)

Note: This is SATELLITE DEBRIS
aabbcc
Your satellite tracking list
Your tracking list is empty




NASA's NSSDC Master Catalog

Two Line Element Set (TLE):
1 28999U 80018D   19079.19862445 -.00000103  00000-0  00000+0 0  9993
2 28999   7.1427 260.2031 4379080 237.0764  72.7937  1.75833146 86124
Source of the keplerian elements: AFSPC